Preview of NWS' New Version of Forecast
This preview is not operational and should not be used for support decisions.

Regional Weather Roundup (RWR)

Issued by Philadelphia/Mt Holly (PHI)

                            
000
ASUS41 KPHI 250012
RWRPHI

REGIONAL WEATHER ROUNDUP
NATIONAL WEATHER SERVICE MOUNT HOLLY NJ
800 PM EDT FRI MAY 24 2019

NOTE:  "FAIR" INDICATES FEW OR NO CLOUDS BELOW 12,000 FEET WITH NO
SIGNIFICANT WEATHER AND/OR OBSTRUCTIONS TO VISIBILITY.

 * = STATION DOES NOT REPORT PRECIPITATION (E.G. RAIN, SNOW, ETC.) 
        OR FOG.

NJZ015>026-250100-
SOUTHERN NEW JERSEY
  
CITY           SKY/WX    TMP DP  RH WIND       PRES   REMARKS
POMONA         FAIR      73  54  51 N6        30.04R                  
6HR MIN TEMP:  73; 6HR MAX TEMP:  81;                                

WILDWOOD*      FAIR      73  57  57 VRB5      30.05R                  
MILLVILLE      FAIR      76  52  43 NW5       30.04R                  
WRIGHTSTOWN    FAIR      72  50  46 N14       30.02R                  
MOUNT HOLLY    FAIR      71  51  49 N7        30.04R                  
TRENTON        FAIR      71  51  49 N7        30.06R                  
6HR MIN TEMP:  71; 6HR MAX TEMP:  78;                                


$$
NJZ001>014-250100-
NORTHERN NEW JERSEY
  
CITY           SKY/WX    TMP DP  RH WIND       PRES   REMARKS
SUSSEX         MOCLDY    64  51  62 N7        30.12R                  
ANDOVER*         N/A     64  49  57 N8        30.11R                  
MORRISTOWN     PTCLDY    68  54  60 N12G18    30.08R                  
NEWARK         FAIR      70  49  47 N17       30.06R                  
TETERBORO      FAIR      68  48  48 N12G24    30.07R                  
CALDWELL       FAIR      68  50  52 MISG      30.09R                  
SOMERVILLE     FAIR      70  49  47 NE7       30.07R                  
ALLAIRE*       FAIR      70  51  51 N10       30.07R                  
TOMS RIVER*    FAIR      72  54  53 N7        30.06R                  

$$
PAZ043-044-047-054-055-060>062-066>071-250100-
EASTERN PENNSYLVANIA
  
CITY           SKY/WX    TMP DP  RH WIND       PRES   REMARKS
PHILADELPHIA   CLOUDY    78  49  35 N10       30.04R                  
6HR MIN TEMP:  78; 6HR MAX TEMP:  82;                                

NORTH PHILA    FAIR      76  48  37 N15       30.06R                  
BLUE BELL*     FAIR      73  51  47 N5        30.06R                  
DOYLESTOWN     FAIR      72  49  44 NE6       30.06R                  
QUAKERTOWN*    CLEAR     72  52  49 N6        30.08R                  
PERKASIE*      FAIR      70  50  49 N7        30.08R                  
POTTSTOWN      FAIR      73  50  44 N6        30.07R                  
LANCASTER      FAIR      75  54  47 NW7       30.06R                  
COATESVILLE    FAIR      73  50  43 NW6       30.08R                  
WEST CHESTER   FAIR      75  50  41 N3        30.06R                  
READING        FAIR      76  53  44 N8        30.05R                  
6HR MIN TEMP:  76; 6HR MAX TEMP:  80;                                

ALLENTOWN      FAIR      72  51  47 N10       30.07R                  
6HR MIN TEMP:  72; 6HR MAX TEMP:  80;                                

QN CITY/ALNTWN FAIR      72  52  49 N10       30.08R                  
MOUNT POCONO   FAIR      60  49  66 NW12      30.12R                  
6HR MIN TEMP:  60; 6HR MAX TEMP:  66;                                

HAZLETON       FAIR      66  50  55 N5        30.14S                  
LEHIGHTON      FAIR      70  50  49 CALM      30.08R                  
WILKES BARRE   FAIR      66  50  56 N9        30.11R                  

$$
DEZALL-MDZ008-012-015-019-020-250100-
DELAWARE AND EASTERN MARYLAND
  
CITY           SKY/WX    TMP DP  RH WIND       PRES   REMARKS
WILMINGTON     FAIR      75  54  47 NW5       30.05R                  
6HR MIN TEMP:  75; 6HR MAX TEMP:  82;                                

DOVER          MOCLDY    76  51  41 NW5       30.04R                  
CHESWOLD         N/A     75  54  46 NW5       30.05R                  
GEORGETOWN     FAIR      77  54  44 CALM      30.06R                  
6HR MIN TEMP:  77; 6HR MAX TEMP:  82;                                

EASTON         PTCLDY    79  54  41 NW3       30.09R                  
STEVENSVILLE   FAIR      73  61  64 N3        30.06R                  
ABERDEEN       MOCLDY    77  50  38 SW6       30.06R                  
PATUXENT       FAIR      79  54  41 N7        30.05                   
OCEAN CITY     FAIR      74  53  48 NW7       30.05R                  
WALLOPS ISLAND FAIR      79  54  41 N6        30.06R                  
CAMBRIDGE      CLEAR     77  54  44 N5        30.05R                  
SALISBURY      FAIR      75  54  47 N3        30.05R                  

$$
PAZ001-021-NYZ056-072-MDZ011-DCZ001-250100-
OTHER NEARBY LOCATIONS
  
CITY           SKY/WX    TMP DP  RH WIND       PRES   REMARKS
HARRISBURG     MOCLDY    74  56  53 W7        30.06R                  
STATE COLLEGE  MOCLDY    70  48  46 N9        30.12F                  
WILLIAMSPORT   FAIR      73  48  41 N5        30.07R                  
BINGHAMTON     FAIR      55  46  71 N8        30.14S                  
NEW YORK CITY  FAIR      68  48  49 N8        30.10R                  
BALTIMORE      MOCLDY    77  52  41 VRB3      30.06R                  
WASHINGTON DC  MOCLDY    78  53  41 N8        30.06R                  

$$